Location: Ocean City
(38.3360°N, 75.0850°W)
Time: 07:35:19
(UTC-04:00)

BEESAT 2 - Pass Details

Date: 24 May 2019
Orbit: 502 x 528 km, 64.9° (Epoch: 20 June)

Event Time Altitude Azimuth Distance (km) Brightness Sun altitude
Rises 02:50:29 0° 339° (NNW) 2,669 ? -25.2°
Reaches altitude 10° 02:52:55 10° 352° (N) 1,778 ? -25.0°
Maximum altitude 02:56:22 27° 52° (NE) 1,035 ? -24.6°
Drops below altitude 10° 02:59:47 10° 111° (ESE) 1,768 ? -24.3°
Enters shadow 03:01:39 - 122° (ESE) 2,446 ? -24.1°
